Regional Weather Roundup
Issued by NWS Kansas City/Pleasant Hill, MO

Home | Current Version | Previous Version | Text Only | Print | Product List | Glossary On
Versions: 1 2 3 4 5 6 7 8 9 10 11 12 13 14 15 16 17 18 19 20 21 22 23 24 25 26 27
000
ASUS43 KEAX 290610
RWREAX

WEATHER ROUNDUP FOR EASTERN KANSAS AND NORTHWEST MISSOURI
NATIONAL WEATHER SERVICE KANSAS CITY/PLEASANT HILL MO
100 AM CDT THU JUN 29 2017

KSZ040-057-103>105-MOZ028-029-037-043-290700-
...KANSAS CITY METROPOLITAN AREA...

CITY           SKY/WX    TMP DP  RH WIND       PRES   REMARKS
K.C. INTL      PTCLDY    79  68  69 S17G26    29.77S
6HR MIN TEMP:  79; 6HR MAX TEMP:  86;

K.C. DOWNTOWN  CLEAR     82  68  62 SW15G26   29.77R
6HR MIN TEMP:  80; 6HR MAX TEMP:  88;

LEES SUMMIT    CLEAR     79  67  66 S18G30    29.80R
6HR MIN TEMP:  79; 6HR MAX TEMP:  86;

OLATHE - IXD   CLEAR     78  67  68 S15G24    29.80R
6HR MIN TEMP:  78; 6HR MAX TEMP:  86;

OLATHE - OJC   CLEAR     78  68  71 S16G24    29.80R
6HR MIN TEMP:  78; 6HR MAX TEMP:  84;

LAWRENCE       PTCLDY    79  69  71 S18G25    29.76S

$$

MOZ001>008-011>017-020>025-030>033-038>040-044>046-053-054-290700-
...NORTHERN AND CENTRAL MISSOURI...

CITY           SKY/WX    TMP DP  RH WIND       PRES   REMARKS
ST. JOSEPH     CLOUDY    75  67  76 SE9       29.79R
6HR MIN TEMP:  73; 6HR MAX TEMP:  87;

MOSBY          CLOUDY    79  64  61 E5        29.82R
WARRENSBURG    CLEAR     75  64  69 S7        29.83R
WHITEMAN AFB   CLOUDY    76  70  84 S15       29.83R
6HR MIN TEMP:  76; 6HR MAX TEMP:  84;

CLINTON        CLEAR     75  66  73 S13       29.84S
SEDALIA        CLOUDY    76  67  73 S14       29.87R
6HR MIN TEMP:  76; 6HR MAX TEMP:  85;

WARSAW         NOT AVBL
CHILLICOTHE      N/A     67  65  93 VRB7      29.88R
6HR MIN TEMP:  66; 6HR MAX TEMP:  85; 6HR PCP:  0.79;

KIRKSVILLE     CLOUDY    65  64  97 S17G25    29.87R
6HR MIN TEMP:  65; 6HR MAX TEMP:  80; 6HR PCP:  1.27;


$$

MOZ041-047>049-056>058-063>065-088>090-097-290700-
...EASTERN AND SOUTHERN MISSOURI...

CITY           SKY/WX    TMP DP  RH WIND       PRES   REMARKS
ST. LOUIS INTL CLOUDY    79  64  60 S9        29.93R
6HR MIN TEMP:  79; 6HR MAX TEMP:  88;

SPIRIT OF STL  CLOUDY    76  66  71 S3        29.91S
COLUMBIA       CLOUDY    76  65  68 E5        29.92R
JEFFERSON CITY CLOUDY    77  64  64 SE6       29.89R
ROLLA          PTCLDY    72  65  78 S12       29.92R
OSAGE BEACH    CLEAR     74  65  73 S8        29.90F
SPRINGFIELD    PTCLDY    74  66  76 S13       29.90R
BRANSON        CLEAR     72  66  83 S8        29.94F
JOPLIN         PTCLDY    77  68  73 S12       29.87S
WEST PLAINS    CLEAR     74  64  71 S9        29.97S

$$

IAZ060-094-KSZ022-034>040-054-083-096-NEZ052-066-093-290700-
...KANSAS...SOUTHEAST NEBRASKA AND IOWA...

CITY           SKY/WX    TMP DP  RH WIND       PRES   REMARKS
TOPEKA         MOCLDY    81  69  67 S16G30    29.75R
6HR MIN TEMP:  81; 6HR MAX TEMP:  88;

MANHATTAN      CLOUDY    83  67  58 NW7       29.80R
EMPORIA        CLEAR     77  67  71 S16       29.78R
CHANUTE        CLEAR     78  67  68 S14       29.82R
WICHITA        PTCLDY    79  66  64 S18       29.76S
OMAHA          PTCLDY    73  64  73 CALM      29.70R
LINCOLN        PTCLDY    72  67  84 CALM      29.73R
FALLS CITY     CLOUDY    77  70  79 SW7       29.75R
LAMONI         CLOUDY    68  65  90 SW20G26   29.75R
DES MOINES     CLOUDY    69  66  90 S6        29.70F

$$





USA.gov is the U.S. government's official web portal to all federal, state and local government web resources and services.